STARLINK-31846, 60126

Orbit data source: Space-Track

STARLINK-31846, 60126 is a payload satellite owned by SpaceX/Seattle (US) in LEO that was launched on Mon, 24 Jun 2024 UTC via an FALCON 9 launch vehicle from the Air Force Western Test Range (AFWTR). Payload-class satellites include a variety of spacecraft equipped with specific instruments for various scientific and technological missions. These include communications satellites like Starlink; space stations such as the ISS; scientific satellites like the Hubble; Earth observation satellites from companies like Planet Labs, Umbra, and HawkEye 360; GPS; miniature CubeSats for education and research; and military/defense satellites.

Loading next visibility...
Identifier
60126, 2024-118P
Orbit
LEO
Country
Flag of USUS
Related business
Manufacturer
SpaceX/Seattle
Mission
Operational spacecraft
Bus & Motor
STARLINK V2M, Unknown motor
Mass
730 kg wet, ~700 kg dry
Launch date (UTC)
2024-06-24 (2 years ago)
Launch vehicle
FALCON 9
Launch site
Air Force Western Test Range (AFWTR)
Object type
Payload
Rocket body
Debris
Shape & HBR
Unknown shape, 17.7 m
Radar Cross Section
Large (>1 m²)

Expand to show TLE details & history
Last TLE update: 10 hours ago

TLE from 10 hours ago
0 STARLINK-31846
1 60126U 24118P   26035.09723573 -.00000507  00000-0 -50017-5 0  9995
2 60126  53.1611 182.7249 0001263  84.0241 276.0904 15.30192404 90554
Epoch: 2026-02-04T02:20Z
TLE epoch observation values (Epoch: 2026-02-04T02:20:01.167Z)
Latitude
0.00002°
Longitude
13.45135°
Altitude
476.046 km
Speed
7.629 km/s
True Right ascension
12h 10m 53s
True Declination
0° 00' 00"
Sunlit
Object was in full shadow at epoch
Visualization orbit readout
Latitude
Unknown
Longitude
Unknown
Altitude
Unknown
Speed
Unknown
Apparent Right ascension
Unknown
Apparent Declination
Unknown
Sunlit
N/A
Visualization observer readout
Local Sidereal Time
13:52:27
Azimuth
Unknown
Elevation
Unknown
Doppler factor
Unknown
Orbital elements
Apogee altitude
476.36 km
Perigee altitude
474.628 km
Semi-major axis
6,853.631 km
Eccentricity
0.00013
Inclination
53.1611°
RAAN
182.7249°
Arg. of periapsis
84.0241°
True anomaly
276.07601°
Mean anomaly
276.0904°
Eccentric anomaly
276.0832°
Mean motion
3.82527 °/min
Orbital period
94.11 mins
BSTAR
-0.0000050017
Loading maneuver chart data...
Computing Atmospheric mass density...
Loading historical data...
Loading historical data...
Loading historical data...
Loading historical data...
Loading historical data...
Loading historical data...
Loading historical data...

Documentation

Showing up to 5 results
|